Year,Month,Day,Hour,Minute,Value (Times are PST for temperature in C)
2021,01,21,00,01,4.60
2021,01,21,00,02,4.60
2021,01,21,00,03,4.60
2021,01,21,00,04,4.60
2021,01,21,00,05,4.60
2021,01,21,00,06,4.60
2021,01,21,00,07,4.60
2021,01,21,00,08,4.60
2021,01,21,00,09,4.60
2021,01,21,00,10,4.60
2021,01,21,00,11,4.60
2021,01,21,00,12,4.60
2021,01,21,00,13,4.60
2021,01,21,00,14,4.60
2021,01,21,00,15,4.60
2021,01,21,00,16,4.60
2021,01,21,00,17,4.60
2021,01,21,00,18,4.60
2021,01,21,00,19,4.60
2021,01,21,00,20,4.60
2021,01,21,00,22,4.60
2021,01,21,00,24,4.60
2021,01,21,00,25,4.60
2021,01,21,00,26,4.60
2021,01,21,00,27,4.60
2021,01,21,00,28,4.60
2021,01,21,00,30,4.60
2021,01,21,00,31,4.60
2021,01,21,00,32,4.50
2021,01,21,00,33,4.50
2021,01,21,00,34,4.50
2021,01,21,00,35,4.50
2021,01,21,00,36,4.50
2021,01,21,00,37,4.50
2021,01,21,00,38,4.50
2021,01,21,00,40,4.50
2021,01,21,00,41,4.50
2021,01,21,00,42,4.50
2021,01,21,00,43,4.50
2021,01,21,00,44,4.50
2021,01,21,00,45,4.50
2021,01,21,00,46,4.50
2021,01,21,00,47,4.40
2021,01,21,00,48,4.40
2021,01,21,00,49,4.40
2021,01,21,00,50,4.40
2021,01,21,00,51,4.40
2021,01,21,00,52,4.40
2021,01,21,00,53,4.40
2021,01,21,00,54,4.40
2021,01,21,00,55,4.40
2021,01,21,00,56,4.40
2021,01,21,00,57,4.40
2021,01,21,00,58,4.40
2021,01,21,01,00,4.40
2021,01,21,01,01,4.40
2021,01,21,01,03,4.40
2021,01,21,01,04,4.40
2021,01,21,01,06,4.40
2021,01,21,01,07,4.40
2021,01,21,01,09,4.40
2021,01,21,01,10,4.40
2021,01,21,01,11,4.40
2021,01,21,01,12,4.40
2021,01,21,01,13,4.40
2021,01,21,01,14,4.40
2021,01,21,01,15,4.40
2021,01,21,01,18,4.40
2021,01,21,01,20,4.40
2021,01,21,01,21,4.30
2021,01,21,01,22,4.30
2021,01,21,01,23,4.30
2021,01,21,01,24,4.30
2021,01,21,01,26,4.30
2021,01,21,01,28,4.30
2021,01,21,01,29,4.30
2021,01,21,01,30,4.30
2021,01,21,01,31,4.30
2021,01,21,01,32,4.30
2021,01,21,01,33,4.30
2021,01,21,01,34,4.30
2021,01,21,01,35,4.30
2021,01,21,01,36,4.30
2021,01,21,01,37,4.30
2021,01,21,01,38,4.30
2021,01,21,01,39,4.40
2021,01,21,01,40,4.40
2021,01,21,01,41,4.40
2021,01,21,01,42,4.40
2021,01,21,01,44,4.40
2021,01,21,01,45,4.40
2021,01,21,01,46,4.40
2021,01,21,01,47,4.40
2021,01,21,01,48,4.40
2021,01,21,01,49,4.40
2021,01,21,01,50,4.40
2021,01,21,01,51,4.40
2021,01,21,01,52,4.40
2021,01,21,01,53,4.40
2021,01,21,01,54,4.40
2021,01,21,01,55,4.40
2021,01,21,01,56,4.40
2021,01,21,01,58,4.40
2021,01,21,01,59,4.30
2021,01,21,02,00,4.40
2021,01,21,02,01,4.40
2021,01,21,02,02,4.40
2021,01,21,02,03,4.40
2021,01,21,02,04,4.40
2021,01,21,02,05,4.40
2021,01,21,02,06,4.40
2021,01,21,02,07,4.40
2021,01,21,02,08,4.40
2021,01,21,02,09,4.40
2021,01,21,02,10,4.40
2021,01,21,02,11,4.40
2021,01,21,02,12,4.40
2021,01,21,02,13,4.40
2021,01,21,02,14,4.40
2021,01,21,02,15,4.40
2021,01,21,02,16,4.40
2021,01,21,02,17,4.40
2021,01,21,02,18,4.40
2021,01,21,02,19,4.40
2021,01,21,02,20,4.40
2021,01,21,02,21,4.40
2021,01,21,02,22,4.40
2021,01,21,02,23,4.40
2021,01,21,02,24,4.40
2021,01,21,02,25,4.40
2021,01,21,02,26,4.30
2021,01,21,02,27,4.30
2021,01,21,02,28,4.30
2021,01,21,02,29,4.30
2021,01,21,02,30,4.30
2021,01,21,02,31,4.30
2021,01,21,02,32,4.30
2021,01,21,02,33,4.30
2021,01,21,02,34,4.30
2021,01,21,02,35,4.30
2021,01,21,02,36,4.30
2021,01,21,02,37,4.30
2021,01,21,02,38,4.30
2021,01,21,02,39,4.30
2021,01,21,02,40,4.30
2021,01,21,02,41,4.30
2021,01,21,02,42,4.30
2021,01,21,02,43,4.30
2021,01,21,02,44,4.30
2021,01,21,02,45,4.30
2021,01,21,02,46,4.30
2021,01,21,02,47,4.30
2021,01,21,02,48,4.30
2021,01,21,02,49,4.30
2021,01,21,02,50,4.30
2021,01,21,02,51,4.30
2021,01,21,02,52,4.40
2021,01,21,02,53,4.40
2021,01,21,02,54,4.40
2021,01,21,02,55,4.40
2021,01,21,02,56,4.40
2021,01,21,02,57,4.40
2021,01,21,02,58,4.40
2021,01,21,02,59,4.40
2021,01,21,03,00,4.40
2021,01,21,03,01,4.40
2021,01,21,03,02,4.40
2021,01,21,03,03,4.40
2021,01,21,03,04,4.40
2021,01,21,03,05,4.40
2021,01,21,03,06,4.40
2021,01,21,03,07,4.30
2021,01,21,03,08,4.30
2021,01,21,03,09,4.30
2021,01,21,03,10,4.30
2021,01,21,03,11,4.30
2021,01,21,03,12,4.30
2021,01,21,03,13,4.30
2021,01,21,03,14,4.30
2021,01,21,03,15,4.30
2021,01,21,03,16,4.30
2021,01,21,03,17,4.30
2021,01,21,03,18,4.30
2021,01,21,03,19,4.30
2021,01,21,03,20,4.30
2021,01,21,03,21,4.30
2021,01,21,03,22,4.30
2021,01,21,03,23,4.30
2021,01,21,03,24,4.30
2021,01,21,03,25,4.30
2021,01,21,03,26,4.30
2021,01,21,03,27,4.30
2021,01,21,03,28,4.30
2021,01,21,03,29,4.30
2021,01,21,03,30,4.30
2021,01,21,03,31,4.30
2021,01,21,03,32,4.30
2021,01,21,03,33,4.30
2021,01,21,03,34,4.30
2021,01,21,03,35,4.30
2021,01,21,03,36,4.30
2021,01,21,03,37,4.30
2021,01,21,03,38,4.30
2021,01,21,03,39,4.30
2021,01,21,03,40,4.30
2021,01,21,03,41,4.30
2021,01,21,03,42,4.30
2021,01,21,03,43,4.30
2021,01,21,03,44,4.30
2021,01,21,03,45,4.30
2021,01,21,03,46,4.30
2021,01,21,03,47,4.30
2021,01,21,03,48,4.30
2021,01,21,03,49,4.30
2021,01,21,03,50,4.30
2021,01,21,03,51,4.30
2021,01,21,03,52,4.30
2021,01,21,03,53,4.30
2021,01,21,03,54,4.30
2021,01,21,03,55,4.30
2021,01,21,03,56,4.30
2021,01,21,03,57,4.30
2021,01,21,03,58,4.30
2021,01,21,03,59,4.30
2021,01,21,04,00,4.30
2021,01,21,04,01,4.30
2021,01,21,04,02,4.30
2021,01,21,04,03,4.30
2021,01,21,04,04,4.30
2021,01,21,04,05,4.30
2021,01,21,04,06,4.30
2021,01,21,04,07,4.30
2021,01,21,04,08,4.30
2021,01,21,04,09,4.30
2021,01,21,04,10,4.20
2021,01,21,04,11,4.20
2021,01,21,04,12,4.20
2021,01,21,04,13,4.20
2021,01,21,04,14,4.20
2021,01,21,04,15,4.20
2021,01,21,04,16,4.20
2021,01,21,04,17,4.20
2021,01,21,04,18,4.20
2021,01,21,04,19,4.20
2021,01,21,04,20,4.20
2021,01,21,04,21,4.20
2021,01,21,04,22,4.20
2021,01,21,04,23,4.20
2021,01,21,04,24,4.20
2021,01,21,04,25,4.20
2021,01,21,04,26,4.20
2021,01,21,04,27,4.20
2021,01,21,04,28,4.10
2021,01,21,04,29,4.10
2021,01,21,04,30,4.10
2021,01,21,04,31,4.10
2021,01,21,04,32,4.10
2021,01,21,04,33,4.10
2021,01,21,04,34,4.10
2021,01,21,04,35,4.10
2021,01,21,04,36,4.10
2021,01,21,04,37,4.10
2021,01,21,04,38,4.10
2021,01,21,04,39,4.10
2021,01,21,04,40,4.10
2021,01,21,04,41,4.10
2021,01,21,04,42,4.10
2021,01,21,04,43,4.10
2021,01,21,04,44,4.10
2021,01,21,04,45,4.10
2021,01,21,04,46,4.10
2021,01,21,04,47,4.10
2021,01,21,04,48,4.10
2021,01,21,04,49,4.10
2021,01,21,04,50,4.10
2021,01,21,04,51,4.10
2021,01,21,04,52,4.00
2021,01,21,04,53,4.10
2021,01,21,04,54,4.10
2021,01,21,04,55,4.00
2021,01,21,04,56,4.10
2021,01,21,04,57,4.00
2021,01,21,04,58,4.00
2021,01,21,04,59,4.00
2021,01,21,05,00,4.00
2021,01,21,05,01,4.00
2021,01,21,05,02,4.00
2021,01,21,05,03,4.00
2021,01,21,05,04,4.00
2021,01,21,05,05,4.00
2021,01,21,05,06,4.00
2021,01,21,05,07,4.00
2021,01,21,05,08,4.00
2021,01,21,05,09,4.00
2021,01,21,05,10,4.00
2021,01,21,05,11,4.00
2021,01,21,05,12,4.00
2021,01,21,05,13,4.10
2021,01,21,05,14,4.10
2021,01,21,05,15,4.00
2021,01,21,05,16,4.00
2021,01,21,05,17,4.10
2021,01,21,05,18,4.10
2021,01,21,05,19,4.10
2021,01,21,05,20,4.10
2021,01,21,05,21,4.10
2021,01,21,05,22,4.10
2021,01,21,05,23,4.10
2021,01,21,05,24,4.10
2021,01,21,05,25,4.10
2021,01,21,05,26,4.10
2021,01,21,05,27,4.10
2021,01,21,05,28,4.10
2021,01,21,05,29,4.10
2021,01,21,05,30,4.10
2021,01,21,05,31,4.10
2021,01,21,05,32,4.10
2021,01,21,05,33,4.20
2021,01,21,05,34,4.20
2021,01,21,05,35,4.20
2021,01,21,05,36,4.20
2021,01,21,05,37,4.20
2021,01,21,05,38,4.20
2021,01,21,05,39,4.20
2021,01,21,05,40,4.20
2021,01,21,05,41,4.20
2021,01,21,05,42,4.20
2021,01,21,05,43,4.20
2021,01,21,05,44,4.20
2021,01,21,05,45,4.20
2021,01,21,05,46,4.20
2021,01,21,05,47,4.20
2021,01,21,05,48,4.20
2021,01,21,05,49,4.20
2021,01,21,05,50,4.20
2021,01,21,05,51,4.20
2021,01,21,05,52,4.20
2021,01,21,05,53,4.20
2021,01,21,05,54,4.20
2021,01,21,05,55,4.20
2021,01,21,05,56,4.20
2021,01,21,05,57,4.20
2021,01,21,05,58,4.20
2021,01,21,05,59,4.20
2021,01,21,06,00,4.20
2021,01,21,06,01,4.20
2021,01,21,06,02,4.20
2021,01,21,06,03,4.20
2021,01,21,06,04,4.20
2021,01,21,06,05,4.20
2021,01,21,06,06,4.20
2021,01,21,06,07,4.20
2021,01,21,06,08,4.20
2021,01,21,06,09,4.20
2021,01,21,06,10,4.20
2021,01,21,06,11,4.20
2021,01,21,06,12,4.20
2021,01,21,06,13,4.20
2021,01,21,06,14,4.20
2021,01,21,06,15,4.20
2021,01,21,06,16,4.20
2021,01,21,06,17,4.20
2021,01,21,06,18,4.20
2021,01,21,06,19,4.20
2021,01,21,06,20,4.20
2021,01,21,09,43,4.10
2021,01,21,09,44,4.10
2021,01,21,09,45,4.10
2021,01,21,09,46,4.10
2021,01,21,09,47,4.10
2021,01,21,09,48,4.10
2021,01,21,09,49,4.10
2021,01,21,09,50,4.10
2021,01,21,09,51,4.10
2021,01,21,09,52,4.10
2021,01,21,09,53,4.10
2021,01,21,09,54,4.10
2021,01,21,09,55,4.10
2021,01,21,09,56,4.10
2021,01,21,09,57,4.10
2021,01,21,09,58,4.10
2021,01,21,09,59,4.10
2021,01,21,10,00,4.10
2021,01,21,10,01,4.10
2021,01,21,10,02,4.10
2021,01,21,10,03,4.20
2021,01,21,10,04,4.20
2021,01,21,10,05,4.20
2021,01,21,10,06,4.20
2021,01,21,10,07,4.20
2021,01,21,10,08,4.20
2021,01,21,10,09,4.20
2021,01,21,10,10,4.20
2021,01,21,10,11,4.20
2021,01,21,10,12,4.30
2021,01,21,10,13,4.30
2021,01,21,10,14,4.30
2021,01,21,10,15,4.30
2021,01,21,10,16,4.30
2021,01,21,10,17,4.30
2021,01,21,10,18,4.30
2021,01,21,10,19,4.30
2021,01,21,10,20,4.40
2021,01,21,10,21,4.40
2021,01,21,10,23,4.40
2021,01,21,10,24,4.40
2021,01,21,10,25,4.40
2021,01,21,10,26,4.50
2021,01,21,10,27,4.50
2021,01,21,10,28,4.50
2021,01,21,10,29,4.60
2021,01,21,10,30,4.60
2021,01,21,10,31,4.60
2021,01,21,10,32,4.60
2021,01,21,10,33,4.60
2021,01,21,10,35,4.60
2021,01,21,10,36,4.60
2021,01,21,10,38,4.70
2021,01,21,10,40,4.70
2021,01,21,10,41,4.80
2021,01,21,10,42,4.80
2021,01,21,10,43,4.80
2021,01,21,10,45,4.90
2021,01,21,10,46,4.90
2021,01,21,10,47,4.90
2021,01,21,10,48,5.00
2021,01,21,10,49,5.10
2021,01,21,10,50,5.10
2021,01,21,10,51,5.10
2021,01,21,10,52,5.10
2021,01,21,10,53,5.20
2021,01,21,10,54,5.20
2021,01,21,10,55,5.20
2021,01,21,10,56,5.20
2021,01,21,10,57,5.30
2021,01,21,10,59,5.30
2021,01,21,11,01,5.40
2021,01,21,11,03,5.60
2021,01,21,11,04,5.60
2021,01,21,11,06,5.80
2021,01,21,11,07,5.80
2021,01,21,11,08,5.90
2021,01,21,11,09,5.90
2021,01,21,11,11,6.10
2021,01,21,11,12,6.20
2021,01,21,11,13,6.20
2021,01,21,11,14,6.30
2021,01,21,11,15,6.30
2021,01,21,11,17,6.60
2021,01,21,11,18,6.60
2021,01,21,11,19,6.70
2021,01,21,11,20,6.80
2021,01,21,11,22,6.90
2021,01,21,11,24,6.80
2021,01,21,11,25,6.80
2021,01,21,11,26,6.70
2021,01,21,11,27,6.70
2021,01,21,11,28,6.60
2021,01,21,11,29,6.60
2021,01,21,11,30,6.60
2021,01,21,11,31,6.60
2021,01,21,11,32,6.60
2021,01,21,11,34,6.60
2021,01,21,11,35,6.60
2021,01,21,11,36,6.60
2021,01,21,11,37,6.60
2021,01,21,11,38,6.60
2021,01,21,11,39,6.60
2021,01,21,11,40,6.60
2021,01,21,11,41,6.70
2021,01,21,11,42,6.70
2021,01,21,11,43,6.70
2021,01,21,11,44,6.70
2021,01,21,11,45,6.70
2021,01,21,11,46,6.60
2021,01,21,11,47,6.60
2021,01,21,11,48,6.60
2021,01,21,11,49,6.60
2021,01,21,11,50,6.60
2021,01,21,11,51,6.60
2021,01,21,11,52,6.60
2021,01,21,11,53,6.60
2021,01,21,11,54,6.60
2021,01,21,11,55,6.60
2021,01,21,11,56,6.50
2021,01,21,11,57,6.60
2021,01,21,11,58,6.60
2021,01,21,11,59,6.60
2021,01,21,12,00,6.60
2021,01,21,12,01,6.60
2021,01,21,12,02,6.60
2021,01,21,12,03,6.70
2021,01,21,12,04,6.70
2021,01,21,12,05,6.80
2021,01,21,12,06,6.80
2021,01,21,12,07,6.90
2021,01,21,12,08,6.90
2021,01,21,12,09,6.90
2021,01,21,12,10,6.90
2021,01,21,12,13,7.10
2021,01,21,12,15,7.20
2021,01,21,12,16,7.20
2021,01,21,12,17,7.30
2021,01,21,12,18,7.30
2021,01,21,12,19,7.30
2021,01,21,12,20,7.40
2021,01,21,12,21,7.40
2021,01,21,12,22,7.40
2021,01,21,12,23,7.50
2021,01,21,12,24,7.50
2021,01,21,12,25,7.40
2021,01,21,12,27,7.40
2021,01,21,12,28,7.30
2021,01,21,12,29,7.30
2021,01,21,12,30,7.30
2021,01,21,12,31,7.30
2021,01,21,12,32,7.30
2021,01,21,12,34,7.30
2021,01,21,12,35,7.30
2021,01,21,12,38,7.30
2021,01,21,12,39,7.30
2021,01,21,12,40,7.30
2021,01,21,12,41,7.40
2021,01,21,12,42,7.40
2021,01,21,12,43,7.40
2021,01,21,12,45,7.50
2021,01,21,12,47,7.60
2021,01,21,12,48,7.50
2021,01,21,12,50,7.60
2021,01,21,12,51,7.60
2021,01,21,12,52,7.70
2021,01,21,12,53,7.70
2021,01,21,12,54,7.80
2021,01,21,12,55,7.80
2021,01,21,12,56,7.80
2021,01,21,12,57,7.80
2021,01,21,12,58,7.90
2021,01,21,12,59,7.90
2021,01,21,13,00,7.90
2021,01,21,13,01,7.80
2021,01,21,13,02,7.80
2021,01,21,13,03,7.80
2021,01,21,13,04,7.80
2021,01,21,13,05,7.80
2021,01,21,13,07,7.80
2021,01,21,13,08,7.80
2021,01,21,13,09,7.80
2021,01,21,13,10,7.90
2021,01,21,13,11,7.90
2021,01,21,13,12,7.90
2021,01,21,13,14,7.90
2021,01,21,13,15,7.90
2021,01,21,13,17,8.00
2021,01,21,13,19,8.10
2021,01,21,13,20,8.10
2021,01,21,13,22,8.20
2021,01,21,13,23,8.30
2021,01,21,13,24,8.40
2021,01,21,13,25,8.40
2021,01,21,13,26,8.50
2021,01,21,13,27,8.50
2021,01,21,13,28,8.60
2021,01,21,13,29,8.60
2021,01,21,13,30,8.70
2021,01,21,13,31,8.80
2021,01,21,13,33,8.80
2021,01,21,13,35,8.80
2021,01,21,13,36,8.80
2021,01,21,13,37,8.80
2021,01,21,13,38,8.80
2021,01,21,13,39,8.80
2021,01,21,13,40,8.80
2021,01,21,13,41,8.90
2021,01,21,13,42,8.90
2021,01,21,13,44,9.00
2021,01,21,13,46,8.90
2021,01,21,13,47,8.90
2021,01,21,13,48,9.00
2021,01,21,13,50,9.10
2021,01,21,13,52,9.00
2021,01,21,13,53,9.00
2021,01,21,13,54,9.00
2021,01,21,13,55,8.90
2021,01,21,13,56,8.90
2021,01,21,13,58,8.90
2021,01,21,13,59,8.90
2021,01,21,14,00,8.90
2021,01,21,14,01,8.80
2021,01,21,14,02,8.80
2021,01,21,14,04,8.60
2021,01,21,14,05,8.50
2021,01,21,14,06,8.40
2021,01,21,14,07,8.40
2021,01,21,14,09,8.40
2021,01,21,14,10,8.40
2021,01,21,14,11,8.40
2021,01,21,14,12,8.40
2021,01,21,14,13,8.30
2021,01,21,14,14,8.30
2021,01,21,14,15,8.30
2021,01,21,14,16,8.30
2021,01,21,14,17,8.30
2021,01,21,14,18,8.20
2021,01,21,14,19,8.20
2021,01,21,14,20,8.20
2021,01,21,14,21,8.10
2021,01,21,14,22,8.10
2021,01,21,14,24,8.10
2021,01,21,14,25,8.10
2021,01,21,14,26,8.10
2021,01,21,14,27,8.10
2021,01,21,14,28,8.10
2021,01,21,14,29,8.00
2021,01,21,14,30,7.90
2021,01,21,14,31,7.90
2021,01,21,14,32,7.90
2021,01,21,14,33,7.90
2021,01,21,14,34,7.80
2021,01,21,14,35,7.80
2021,01,21,14,36,7.80
2021,01,21,14,37,7.80
2021,01,21,14,38,7.80
2021,01,21,14,39,7.80
2021,01,21,14,41,7.80
2021,01,21,14,42,7.70
2021,01,21,14,43,7.70
2021,01,21,14,44,7.70
2021,01,21,14,45,7.70
2021,01,21,14,46,7.70
2021,01,21,14,47,7.70
2021,01,21,14,49,7.70
2021,01,21,14,50,7.70
2021,01,21,14,51,7.70
2021,01,21,14,52,7.70
2021,01,21,14,53,7.80
2021,01,21,14,54,7.80
2021,01,21,14,55,7.90
2021,01,21,14,56,7.90
2021,01,21,14,57,8.00
2021,01,21,14,58,8.10
2021,01,21,14,59,8.20
2021,01,21,15,00,8.30
2021,01,21,15,01,8.30
2021,01,21,15,02,8.40
2021,01,21,15,03,8.40
2021,01,21,15,04,8.40
2021,01,21,15,05,8.40
2021,01,21,15,06,8.30
2021,01,21,15,07,8.30
2021,01,21,15,08,8.30
2021,01,21,15,09,8.20
2021,01,21,15,11,8.20
2021,01,21,15,12,8.10
2021,01,21,15,13,8.10
2021,01,21,15,14,8.00
2021,01,21,15,15,8.00
2021,01,21,15,16,7.90
2021,01,21,15,17,7.90
2021,01,21,15,18,7.90
2021,01,21,15,19,7.90
2021,01,21,15,20,7.90
2021,01,21,15,21,7.90
2021,01,21,15,22,7.90
2021,01,21,15,24,7.80
2021,01,21,15,25,7.80
2021,01,21,15,27,7.70
2021,01,21,15,28,7.70
2021,01,21,15,29,7.70
2021,01,21,15,30,7.60
2021,01,21,15,31,7.60
2021,01,21,15,32,7.50
2021,01,21,15,34,7.40
2021,01,21,15,35,7.30
2021,01,21,15,36,7.30
2021,01,21,15,37,7.30
2021,01,21,15,38,7.20
2021,01,21,15,39,7.20
2021,01,21,15,40,7.20
2021,01,21,15,41,7.10
2021,01,21,15,42,7.10
2021,01,21,15,44,7.20
2021,01,21,15,45,7.20
2021,01,21,15,46,7.20
2021,01,21,15,47,7.20
2021,01,21,15,48,7.20
2021,01,21,15,49,7.20
2021,01,21,15,50,7.20
2021,01,21,15,51,7.20
2021,01,21,15,52,7.20
2021,01,21,15,54,7.20
2021,01,21,15,55,7.20
2021,01,21,15,56,7.20
2021,01,21,15,57,7.20
2021,01,21,15,58,7.20
2021,01,21,15,59,7.20
2021,01,21,16,00,7.20
2021,01,21,16,01,7.20
2021,01,21,16,03,7.20
2021,01,21,16,04,7.20
2021,01,21,16,05,7.20
2021,01,21,16,06,7.20
2021,01,21,16,07,7.20
2021,01,21,16,08,7.20
2021,01,21,16,09,7.20
2021,01,21,16,10,7.20
2021,01,21,16,11,7.20
2021,01,21,16,12,7.20
2021,01,21,16,13,7.20
2021,01,21,16,14,7.10
2021,01,21,16,15,7.10
2021,01,21,16,16,7.00
2021,01,21,16,17,6.90
2021,01,21,16,18,6.90
2021,01,21,16,19,6.80
2021,01,21,16,20,6.80
2021,01,21,16,21,6.70
2021,01,21,16,22,6.70
2021,01,21,16,23,6.60
2021,01,21,16,24,6.50
2021,01,21,16,25,6.40
2021,01,21,16,26,6.40
2021,01,21,16,27,6.30
2021,01,21,16,28,6.30
2021,01,21,16,29,6.20
2021,01,21,16,30,6.10
2021,01,21,16,31,6.10
2021,01,21,16,32,6.10
2021,01,21,16,34,5.90
2021,01,21,16,35,5.80
2021,01,21,16,36,5.80
2021,01,21,16,37,5.70
2021,01,21,16,38,5.60
2021,01,21,16,39,5.60
2021,01,21,16,40,5.50
2021,01,21,16,41,5.40
2021,01,21,16,43,5.30
2021,01,21,16,44,5.30
2021,01,21,16,45,5.20
2021,01,21,16,46,5.20
2021,01,21,16,47,5.20
2021,01,21,16,48,5.10
2021,01,21,16,49,5.10
2021,01,21,16,50,5.10
2021,01,21,16,51,5.00
2021,01,21,16,52,5.00
2021,01,21,16,53,4.90
2021,01,21,16,54,4.90
2021,01,21,16,55,4.90
2021,01,21,16,56,4.80
2021,01,21,16,57,4.80
2021,01,21,16,58,4.80
2021,01,21,16,59,4.70
2021,01,21,17,00,4.70
2021,01,21,17,01,4.70
2021,01,21,17,02,4.70
2021,01,21,17,03,4.70
2021,01,21,17,04,4.60
2021,01,21,17,05,4.60
2021,01,21,17,06,4.60
2021,01,21,17,07,4.50
2021,01,21,17,08,4.50
2021,01,21,17,09,4.40
2021,01,21,17,10,4.40
2021,01,21,17,11,4.40
2021,01,21,17,12,4.40
2021,01,21,17,13,4.30
2021,01,21,17,14,4.30
2021,01,21,17,15,4.30
2021,01,21,17,16,4.20
2021,01,21,17,17,4.20
2021,01,21,17,18,4.20
2021,01,21,17,19,4.10
2021,01,21,17,20,4.10
2021,01,21,17,22,4.10
2021,01,21,17,23,4.10
2021,01,21,17,25,4.00
2021,01,21,17,26,3.90
2021,01,21,17,27,3.90
2021,01,21,17,28,3.90
2021,01,21,17,29,3.90
2021,01,21,17,30,3.90
2021,01,21,17,31,3.90
2021,01,21,17,32,3.90
2021,01,21,17,33,3.90
2021,01,21,17,35,3.90
2021,01,21,17,36,3.80
2021,01,21,17,37,3.80
2021,01,21,17,38,3.80
2021,01,21,17,39,3.80
2021,01,21,17,40,3.80
2021,01,21,17,41,3.80
2021,01,21,17,42,3.80
2021,01,21,17,43,3.80
2021,01,21,17,44,3.80
2021,01,21,17,45,3.80
2021,01,21,17,46,3.80
2021,01,21,17,47,3.70
2021,01,21,17,48,3.70
2021,01,21,17,49,3.70
2021,01,21,17,51,3.70
2021,01,21,17,53,3.70
2021,01,21,17,54,3.70
2021,01,21,17,55,3.60
2021,01,21,17,57,3.60
2021,01,21,17,58,3.60
2021,01,21,17,59,3.60
2021,01,21,18,00,3.60
2021,01,21,18,01,3.60
2021,01,21,18,02,3.60
2021,01,21,18,03,3.50
2021,01,21,18,04,3.50
2021,01,21,18,06,3.40
2021,01,21,18,07,3.40
2021,01,21,18,08,3.40
2021,01,21,18,09,3.30
2021,01,21,18,10,3.30
2021,01,21,18,11,3.30
2021,01,21,18,12,3.20
2021,01,21,18,13,3.20
2021,01,21,18,14,3.20
2021,01,21,18,15,3.20
2021,01,21,18,16,3.20
2021,01,21,18,17,3.10
2021,01,21,18,18,3.10
2021,01,21,18,19,3.10
2021,01,21,18,20,3.10
2021,01,21,18,21,3.10
2021,01,21,18,22,3.10
2021,01,21,18,23,3.10
2021,01,21,18,24,3.10
2021,01,21,18,27,3.00
2021,01,21,18,28,3.00
2021,01,21,18,29,3.00
2021,01,21,18,30,3.00
2021,01,21,18,31,3.00
2021,01,21,18,32,2.90
2021,01,21,18,33,2.90
2021,01,21,18,34,2.90
2021,01,21,18,35,2.90
2021,01,21,18,36,2.90
2021,01,21,18,37,2.90
2021,01,21,18,38,2.90
2021,01,21,18,39,2.80
2021,01,21,18,40,2.80
2021,01,21,18,41,2.80
2021,01,21,18,42,2.80
2021,01,21,18,43,2.80
2021,01,21,18,44,2.70
2021,01,21,18,45,2.70
2021,01,21,18,46,2.70
2021,01,21,18,47,2.70
2021,01,21,18,48,2.70
2021,01,21,18,49,2.70
2021,01,21,18,50,2.70
2021,01,21,18,51,2.70
2021,01,21,18,52,2.70
2021,01,21,18,53,2.70
2021,01,21,18,54,2.70
2021,01,21,18,55,2.70
2021,01,21,18,56,2.70
2021,01,21,18,57,2.60
2021,01,21,18,58,2.60
2021,01,21,18,59,2.60
2021,01,21,19,00,2.60
2021,01,21,19,01,2.60
2021,01,21,19,02,2.60
2021,01,21,19,03,2.60
2021,01,21,19,04,2.60
2021,01,21,19,05,2.60
2021,01,21,19,06,2.60
2021,01,21,19,07,2.60
2021,01,21,19,08,2.60
2021,01,21,19,09,2.60
2021,01,21,19,10,2.60
2021,01,21,19,11,2.60
2021,01,21,19,12,2.60
2021,01,21,19,13,2.60
2021,01,21,19,14,2.60
2021,01,21,19,15,2.60
2021,01,21,19,16,2.60
2021,01,21,19,17,2.60
2021,01,21,19,18,2.60
2021,01,21,19,19,2.50
2021,01,21,19,21,2.50
2021,01,21,19,22,2.50
2021,01,21,19,23,2.40
2021,01,21,19,24,2.40
2021,01,21,19,25,2.40
2021,01,21,19,26,2.40
2021,01,21,19,27,2.40
2021,01,21,19,28,2.40
2021,01,21,19,29,2.40
2021,01,21,19,31,2.40
2021,01,21,19,32,2.30
2021,01,21,19,33,2.30
2021,01,21,19,34,2.30
2021,01,21,19,35,2.30
2021,01,21,19,36,2.30
2021,01,21,19,37,2.30
2021,01,21,19,38,2.30
2021,01,21,19,39,2.30
2021,01,21,19,41,2.20
2021,01,21,19,42,2.20
2021,01,21,19,43,2.20
2021,01,21,19,44,2.20
2021,01,21,19,45,2.20
2021,01,21,19,46,2.20
2021,01,21,19,47,2.20
2021,01,21,19,48,2.20
2021,01,21,19,49,2.20
2021,01,21,19,51,2.20
2021,01,21,19,52,2.10
2021,01,21,19,53,2.10
2021,01,21,19,54,2.10
2021,01,21,19,55,2.10
2021,01,21,19,56,2.10
2021,01,21,19,57,2.10
2021,01,21,19,58,2.00
2021,01,21,19,59,2.10
2021,01,21,20,00,2.00
2021,01,21,20,01,2.00
2021,01,21,20,02,2.00
2021,01,21,20,03,1.90
2021,01,21,20,04,1.90
2021,01,21,20,05,1.90
2021,01,21,20,06,1.90
2021,01,21,20,07,1.90
2021,01,21,20,08,1.90
2021,01,21,20,10,1.90
2021,01,21,20,11,1.80
2021,01,21,20,12,1.80
2021,01,21,20,13,1.80
2021,01,21,20,14,1.80
2021,01,21,20,15,1.80
2021,01,21,20,16,1.80
2021,01,21,20,17,1.80
2021,01,21,20,19,1.80
2021,01,21,20,20,1.80
2021,01,21,20,21,1.80
2021,01,21,20,22,1.80
2021,01,21,20,23,1.80
2021,01,21,20,24,1.80
2021,01,21,20,25,1.80
2021,01,21,20,26,1.80
2021,01,21,20,27,1.80
2021,01,21,20,28,1.80
2021,01,21,20,30,1.70
2021,01,21,20,31,1.70
2021,01,21,20,32,1.70
2021,01,21,20,33,1.70
2021,01,21,20,34,1.70
2021,01,21,20,35,1.70
2021,01,21,20,36,1.60
2021,01,21,20,37,1.60
2021,01,21,20,39,1.60
2021,01,21,20,40,1.60
2021,01,21,20,41,1.60
2021,01,21,20,42,1.50
2021,01,21,20,43,1.50
2021,01,21,20,44,1.50
2021,01,21,20,45,1.50
2021,01,21,20,46,1.40
2021,01,21,20,47,1.40
2021,01,21,20,48,1.40
2021,01,21,20,49,1.40
2021,01,21,20,50,1.50
2021,01,21,20,51,1.50
2021,01,21,20,52,1.50
2021,01,21,20,53,1.50
2021,01,21,20,54,1.50
2021,01,21,20,55,1.50
2021,01,21,20,56,1.50
2021,01,21,20,57,1.50
2021,01,21,20,58,1.50
2021,01,21,21,00,1.50
2021,01,21,21,01,1.50
2021,01,21,21,02,1.50
2021,01,21,21,03,1.50
2021,01,21,21,04,1.40
2021,01,21,21,05,1.40
2021,01,21,21,06,1.40
2021,01,21,21,07,1.40
2021,01,21,21,08,1.40
2021,01,21,21,09,1.40
2021,01,21,21,10,1.30
2021,01,21,21,11,1.30
2021,01,21,21,12,1.30
2021,01,21,21,13,1.30
2021,01,21,21,14,1.30
2021,01,21,21,15,1.30
2021,01,21,21,16,1.30
2021,01,21,21,17,1.30
2021,01,21,21,18,1.30
2021,01,21,21,19,1.30
2021,01,21,21,21,1.30
2021,01,21,21,22,1.30
2021,01,21,21,23,1.30
2021,01,21,21,24,1.20
2021,01,21,21,25,1.20
2021,01,21,21,26,1.20
2021,01,21,21,27,1.20
2021,01,21,21,28,1.20
2021,01,21,21,29,1.20
2021,01,21,21,30,1.20
2021,01,21,21,31,1.20
2021,01,21,21,32,1.20
2021,01,21,21,33,1.20
2021,01,21,21,34,1.10
2021,01,21,21,35,1.10
2021,01,21,21,36,1.10
2021,01,21,21,37,1.10
2021,01,21,21,38,1.10
2021,01,21,21,39,1.10
2021,01,21,21,40,1.10
2021,01,21,21,41,1.10
2021,01,21,21,42,1.10
2021,01,21,21,43,1.10
2021,01,21,21,44,1.10
2021,01,21,21,45,1.10
2021,01,21,21,46,1.10
2021,01,21,21,47,1.10
2021,01,21,21,48,1.00
2021,01,21,21,49,1.00
2021,01,21,21,50,1.00
2021,01,21,21,52,0.90
2021,01,21,21,53,0.90
2021,01,21,21,54,0.90
2021,01,21,21,55,0.90
2021,01,21,21,56,0.90
2021,01,21,21,57,0.90
2021,01,21,21,58,0.90
2021,01,21,21,59,0.90
2021,01,21,22,00,0.90
2021,01,21,22,01,0.90
2021,01,21,22,02,0.90
2021,01,21,22,03,0.90
2021,01,21,22,04,0.90
2021,01,21,22,05,0.80
2021,01,21,22,06,0.80
2021,01,21,22,07,0.80
2021,01,21,22,08,0.80
2021,01,21,22,09,0.80
2021,01,21,22,10,0.80
2021,01,21,22,11,0.80
2021,01,21,22,12,0.70
2021,01,21,22,13,0.70
2021,01,21,22,14,0.70
2021,01,21,22,15,0.70
2021,01,21,22,16,0.70
2021,01,21,22,17,0.70
2021,01,21,22,18,0.70
2021,01,21,22,19,0.70
2021,01,21,22,20,0.70
2021,01,21,22,21,0.70
2021,01,21,22,22,0.70
2021,01,21,22,23,0.70
2021,01,21,22,25,0.70
2021,01,21,22,26,0.60
2021,01,21,22,27,0.60
2021,01,21,22,29,0.60
2021,01,21,22,30,0.60
2021,01,21,22,31,0.60
2021,01,21,22,32,0.60
2021,01,21,22,33,0.70
2021,01,21,22,34,0.70
2021,01,21,22,35,0.70
2021,01,21,22,36,0.70
2021,01,21,22,37,0.70
2021,01,21,22,38,0.70
2021,01,21,22,39,0.60
2021,01,21,22,40,0.60
2021,01,21,22,41,0.60
2021,01,21,22,42,0.60
2021,01,21,22,43,0.60
2021,01,21,22,45,0.60
2021,01,21,22,46,0.60
2021,01,21,22,47,0.60
2021,01,21,22,48,0.50
2021,01,21,22,49,0.50
2021,01,21,22,50,0.50
2021,01,21,22,51,0.50
2021,01,21,22,52,0.40
2021,01,21,22,53,0.40
2021,01,21,22,54,0.40
2021,01,21,22,55,0.40
2021,01,21,22,56,0.40
2021,01,21,22,57,0.40